Location: Brede
(50.9167°N, 0.6000°E)
Time: 09:27:10
(UTC+00:00)

Tiros 1 - Pass Details

Date: 29 November 2020
Orbit: 630 x 663 km, 48.4° (Epoch: 16 January)

Event Time Altitude Azimuth Distance (km) Brightness Sun altitude
Rises 20:15:08 0° 280° (W) 2,986 11.5 -39.9°
Reaches altitude 10° 20:17:41 10° 270° (W) 2,067 10.4 -40.3°
Enters shadow 20:17:55 11° 269° (W) 1,987 10.2 -40.3°
